| time (UTC) | temp F | wind direction | speed MPH | gust MPH | rain 1hr in | rain 24hr in | rain mn in | humidity % | barometer mb |
| 20260506132211 | 42 | 188 | 0.0 | 0.0 | 0.00 | 0.02 | 0.00 | 62 | 1012.2 |
| 20260506131714 | 42 | 11 | 0.0 | 0.0 | 0.00 | 0.02 | 0.00 | 62 | 1012.2 |
| 20260506131211 | 42 | 9 | 0.0 | 0.0 | 0.00 | 0.02 | 0.00 | 65 | 1012.1 |
| 20260506130711 | 41 | 39 | 0.0 | 0.0 | 0.00 | 0.02 | 0.00 | 64 | 1012.2 |
| 20260506130214 | 40 | 87 | 0.0 | 0.0 | 0.00 | 0.02 | 0.00 | 68 | 1012.1 |
| 20260506125714 | 39 | 177 | 0.0 | 0.0 | 0.00 | 0.02 | 0.00 | 70 | 1012.1 |
| 20260506125211 | 39 | 86 | 0.0 | 0.0 | 0.00 | 0.02 | 0.00 | 69 | 1012.1 |
| 20260506124711 | 39 | 153 | 0.0 | 0.0 | 0.00 | 0.02 | 0.00 | 69 | 1012.1 |
| 20260506124214 | 39 | 149 | 0.0 | 0.0 | 0.00 | 0.02 | 0.00 | 68 | 1012.0 |
| 20260506123711 | 39 | 156 | 0.0 | 0.0 | 0.00 | 0.02 | 0.00 | 68 | 1012.1 |
| 20260506123214 | 39 | 156 | 0.0 | 0.0 | 0.00 | 0.02 | 0.00 | 68 | 1012.1 |
| 20260506122711 | 39 | 0 | 0.0 | 0.0 | 0.00 | 0.02 | 0.00 | 69 | 1012.1 |
| 20260506122214 | 39 | 80 | 0.0 | 0.0 | 0.00 | 0.02 | 0.00 | 70 | 1012.1 |
| 20260506121714 | 39 | 9 | 0.0 | 0.0 | 0.00 | 0.02 | 0.00 | 69 | 1012.1 |
| 20260506121214 | 39 | 352 | 0.0 | 0.0 | 0.00 | 0.02 | 0.00 | 68 | 1012.0 |
| 20260506120714 | 39 | 290 | 0.0 | 0.0 | 0.00 | 0.02 | 0.00 | 68 | 1012.0 |
| 20260506120211 | 40 | 290 | 0.0 | 0.0 | 0.00 | 0.02 | 0.00 | 67 | 1012.1 |
| 20260506115714 | 40 | 263 | 0.0 | 0.0 | 0.00 | 0.02 | 0.00 | 66 | 1012.1 |
| 20260506115214 | 39 | 260 | 0.0 | 0.0 | 0.00 | 0.02 | 0.00 | 68 | 1012.2 |
| 20260506114711 | 39 | 160 | 0.0 | 0.0 | 0.00 | 0.02 | 0.00 | 68 | 1012.2 |
| 20260506114211 | 39 | 142 | 0.0 | 0.0 | 0.00 | 0.02 | 0.00 | 68 | 1012.3 |
| 20260506113711 | 39 | 155 | 0.0 | 0.0 | 0.00 | 0.02 | 0.00 | 67 | 1012.2 |
| 20260506113214 | 39 | 139 | 0.0 | 0.0 | 0.00 | 0.02 | 0.00 | 68 | 1012.2 |
| 20260506112714 | 39 | 162 | 0.0 | 0.0 | 0.00 | 0.02 | 0.00 | 68 | 1012.2 |
| 20260506112211 | 39 | 200 | 0.0 | 0.0 | 0.00 | 0.02 | 0.00 | 68 | 1012.4 |
| 20260506111711 | 39 | 163 | 0.0 | 0.0 | 0.00 | 0.02 | 0.00 | 68 | 1012.4 |
| 20260506111211 | 39 | 174 | 0.0 | 0.0 | 0.00 | 0.02 | 0.00 | 67 | 1012.4 |
| 20260506110711 | 39 | 170 | 0.0 | 0.0 | 0.00 | 0.02 | 0.00 | 67 | 1012.4 |
| 20260506110211 | 39 | 153 | 0.0 | 0.0 | 0.00 | 0.02 | 0.00 | 67 | 1012.4 |
| 20260506105711 | 39 | 253 | 0.0 | 0.0 | 0.00 | 0.02 | 0.00 | 67 | 1012.4 |
| 20260506105214 | 39 | 249 | 0.0 | 0.0 | 0.00 | 0.02 | 0.00 | 67 | 1012.6 |
| 20260506104711 | 39 | 259 | 0.0 | 0.0 | 0.00 | 0.02 | 0.00 | 66 | 1012.8 |
| 20260506104211 | 39 | 243 | 0.0 | 0.0 | 0.00 | 0.02 | 0.00 | 67 | 1013.0 |
| 20260506103714 | 39 | 250 | 0.0 | 0.0 | 0.00 | 0.02 | 0.00 | 67 | 1013.1 |
| 20260506103214 | 38 | 256 | 0.0 | 0.0 | 0.00 | 0.02 | 0.00 | 68 | 1013.2 |
| 20260506102711 | 38 | 260 | 0.0 | 0.0 | 0.00 | 0.02 | 0.00 | 70 | 1013.3 |
| 20260506102211 | 37 | 242 | 0.0 | 0.0 | 0.00 | 0.02 | 0.00 | 71 | 1013.2 |
| 20260506101711 | 37 | 242 | 0.0 | 0.0 | 0.00 | 0.02 | 0.00 | 71 | 1013.3 |
| 20260506101211 | 37 | 158 | 0.0 | 0.0 | 0.00 | 0.02 | 0.00 | 70 | 1013.3 |
| 20260506100714 | 37 | 158 | 0.0 | 0.0 | 0.00 | 0.02 | 0.00 | 71 | 1013.5 |
| 20260506100211 | 37 | 142 | 0.0 | 0.0 | 0.00 | 0.02 | 0.00 | 72 | 1013.7 |
| 20260506095711 | 37 | 155 | 0.0 | 0.0 | 0.00 | 0.02 | 0.00 | 72 | 1013.7 |
| 20260506095214 | 37 | 155 | 0.0 | 0.0 | 0.00 | 0.02 | 0.00 | 72 | 1013.7 |
| 20260506094714 | 37 | 166 | 0.0 | 0.0 | 0.00 | 0.02 | 0.00 | 71 | 1013.7 |
| 20260506094214 | 37 | 166 | 0.0 | 0.0 | 0.00 | 0.02 | 0.00 | 71 | 1013.8 |
| 20260506093711 | 37 | 166 | 0.0 | 0.0 | 0.00 | 0.02 | 0.00 | 71 | 1013.8 |
| 20260506093214 | 37 | 166 | 0.0 | 0.0 | 0.00 | 0.02 | 0.00 | 71 | 1013.8 |
| 20260506092714 | 38 | 166 | 0.0 | 0.0 | 0.00 | 0.02 | 0.00 | 70 | 1013.8 |
| 20260506092211 | 38 | 166 | 0.0 | 0.0 | 0.00 | 0.02 | 0.00 | 71 | 1013.8 |
| 20260506091714 | 38 | 142 | 0.0 | 0.0 | 0.00 | 0.02 | 0.00 | 71 | 1013.8 |
| 20260506091214 | 38 | 155 | 0.0 | 0.0 | 0.00 | 0.02 | 0.00 | 72 | 1013.8 |
| 20260506090714 | 38 | 176 | 0.0 | 0.0 | 0.00 | 0.02 | 0.00 | 73 | 1014.0 |
| 20260506090211 | 38 | 160 | 0.0 | 0.0 | 0.00 | 0.02 | 0.00 | 73 | 1014.2 |
| 20260506085714 | 38 | 167 | 0.0 | 0.0 | 0.00 | 0.02 | 0.00 | 74 | 1014.2 |
| 20260506085214 | 38 | 153 | 0.0 | 0.0 | 0.00 | 0.02 | 0.00 | 76 | 1014.4 |
| 20260506084711 | 38 | 197 | 0.0 | 0.0 | 0.00 | 0.02 | 0.00 | 74 | 1014.5 |
| 20260506084211 | 38 | 145 | 0.0 | 0.0 | 0.00 | 0.02 | 0.00 | 76 | 1014.6 |
| 20260506083714 | 38 | 183 | 0.0 | 0.0 | 0.00 | 0.02 | 0.00 | 76 | 1014.7 |
| 20260506083214 | 38 | 149 | 0.0 | 0.0 | 0.00 | 0.02 | 0.00 | 77 | 1014.8 |
| 20260506082714 | 38 | 150 | 0.0 | 0.0 | 0.00 | 0.02 | 0.00 | 79 | 1014.9 |
| 20260506082211 | 37 | 158 | 0.0 | 0.0 | 0.00 | 0.02 | 0.00 | 80 | 1015.0 |
| 20260506081711 | 37 | 158 | 0.0 | 0.0 | 0.00 | 0.02 | 0.00 | 80 | 1015.0 |
| 20260506081211 | 37 | 142 | 0.0 | 0.0 | 0.00 | 0.02 | 0.00 | 83 | 1015.1 |
| 20260506080711 | 37 | 154 | 0.0 | 0.0 | 0.00 | 0.02 | 0.00 | 82 | 1015.2 |
| 20260506080214 | 37 | 228 | 0.0 | 0.0 | 0.00 | 0.02 | 0.00 | 82 | 1015.2 |
| 20260506073211 | 38 | 158 | 0.0 | 0.0 | 0.00 | 0.02 | 0.00 | 79 | 1015.5 |
| 20260506072714 | 39 | 156 | 0.0 | 0.0 | 0.00 | 0.02 | 0.00 | 74 | 1015.7 |
| 20260506072214 | 40 | 183 | 0.0 | 0.0 | 0.00 | 0.02 | 0.00 | 71 | 1015.7 |
| 20260506071711 | 40 | 181 | 0.0 | 0.0 | 0.00 | 0.02 | 0.00 | 70 | 1015.8 |
| 20260506071211 | 40 | 155 | 0.0 | 0.0 | 0.00 | 0.02 | 0.00 | 71 | 1016.0 |
| 20260506070714 | 40 | 177 | 0.0 | 0.0 | 0.00 | 0.02 | 0.00 | 72 | 1016.1 |
| 20260506070211 | 40 | 152 | 0.0 | 0.0 | 0.00 | 0.02 | 0.00 | 69 | 1016.1 |
| 20260506062214 | 42 | 262 | 0.0 | 0.0 | 0.00 | 0.02 | 0.00 | 62 | 1016.2 |
| 20260506061711 | 42 | 266 | 0.0 | 0.0 | 0.00 | 0.02 | 0.00 | 62 | 1016.2 |
| 20260506061214 | 43 | 246 | 0.0 | 0.0 | 0.00 | 0.02 | 0.00 | 62 | 1016.2 |
| 20260506060714 | 43 | 269 | 0.0 | 0.0 | 0.00 | 0.02 | 0.00 | 63 | 1016.1 |
| 20260506060214 | 43 | 208 | 0.0 | 0.0 | 0.00 | 0.02 | 0.00 | 62 | 1016.1 |
| 20260506051214 | 43 | 302 | 0.0 | 0.0 | 0.00 | 0.02 | 0.00 | 66 | 1016.2 |
| 20260506050711 | 43 | 276 | 0.0 | 1.0 | 0.00 | 0.02 | 0.00 | 66 | 1016.8 |
| 20260506050211 | 43 | 258 | 0.0 | 1.0 | 0.00 | 0.02 | 0.00 | 68 | 1016.7 |
| 20260506044711 | 43 | 162 | 0.0 | 0.0 | 0.00 | 0.02 | 0.00 | 69 | 1017.0 |
| 20260506044211 | 43 | 262 | 0.0 | 0.0 | 0.00 | 0.02 | 0.00 | 69 | 1017.1 |
| 20260506043714 | 44 | 236 | 0.0 | 0.0 | 0.00 | 0.02 | 0.00 | 68 | 1017.2 |
| 20260506043214 | 44 | 248 | 0.0 | 0.0 | 0.00 | 0.02 | 0.00 | 68 | 1017.1 |
| 20260506042711 | 44 | 230 | 0.0 | 0.0 | 0.00 | 0.02 | 0.00 | 69 | 1017.0 |
| 20260506042211 | 44 | 218 | 0.0 | 0.0 | 0.00 | 0.02 | 0.00 | 69 | 1017.0 |
| 20260506041714 | 44 | 238 | 0.0 | 0.0 | 0.00 | 0.02 | 0.00 | 69 | 1016.9 |
| 20260506041214 | 44 | 269 | 0.0 | 0.0 | 0.01 | 0.02 | 0.00 | 70 | 1016.6 |
| 20260506040714 | 43 | 265 | 0.0 | 0.0 | 0.01 | 0.02 | 0.00 | 70 | 1016.4 |
| 20260506040214 | 43 | 267 | 0.0 | 1.0 | 0.01 | 0.02 | 0.00 | 70 | 1016.3 |
| 20260506035714 | 43 | 215 | 0.0 | 1.0 | 0.01 | 0.02 | 0.00 | 71 | 1016.2 |
| 20260506035211 | 42 | 250 | 0.0 | 2.0 | 0.01 | 0.02 | 0.00 | 73 | 1016.1 |
| 20260506034714 | 42 | 252 | 0.0 | 5.0 | 0.01 | 0.02 | 0.00 | 77 | 1016.3 |
| 20260506034214 | 41 | 300 | 0.0 | 0.0 | 0.02 | 0.02 | 0.00 | 81 | 1016.3 |
| 20260506033714 | 41 | 232 | 0.0 | 0.0 | 0.02 | 0.02 | 0.00 | 82 | 1016.5 |
| 20260506033211 | 41 | 248 | 0.0 | 0.0 | 0.02 | 0.02 | 0.00 | 81 | 1016.7 |
| 20260506032714 | 42 | 195 | 0.0 | 0.0 | 0.02 | 0.02 | 0.00 | 81 | 1017.3 |
| 20260506032214 | 42 | 169 | 0.0 | 0.0 | 0.02 | 0.02 | 0.00 | 80 | 1017.4 |
| 20260506031711 | 42 | 302 | 0.0 | 0.0 | 0.02 | 0.02 | 0.00 | 80 | 1017.6 |
| 20260506031214 | 42 | 221 | 0.0 | 0.0 | 0.01 | 0.01 | 0.00 | 80 | 1017.4 |
| 20260506030711 | 42 | 240 | 0.0 | 0.0 | 0.01 | 0.01 | 0.00 | 80 | 1017.1 |
| 20260506030211 | 42 | 274 | 0.0 | 1.0 | 0.01 | 0.01 | 0.00 | 79 | 1017.0 |
| 20260506025714 | 42 | 259 | 0.0 | 5.0 | 0.01 | 0.01 | 0.00 | 77 | 1016.7 |
| 20260506025211 | 43 | 273 | 2.0 | 1.0 | 0.01 | 0.01 | 0.00 | 75 | 1016.5 |
| 20260506024714 | 43 | 300 | 0.0 | 0.0 | 0.01 | 0.01 | 0.00 | 74 | 1016.2 |
| 20260506024214 | 43 | 224 | 0.0 | 0.0 | 0.00 | 0.00 | 0.00 | 71 | 1016.5 |
| 20260506023711 | 44 | 274 | 0.0 | 0.0 | 0.00 | 0.00 | 0.00 | 69 | 1016.3 |
| 20260506023214 | 44 | 250 | 0.0 | 4.0 | 0.00 | 0.00 | 0.00 | 66 | 1016.5 |
| 20260506022711 | 44 | 248 | 0.0 | 3.0 | 0.00 | 0.00 | 0.00 | 65 | 1016.6 |
| 20260506022214 | 45 | 263 | 0.0 | 14.0 | 0.00 | 0.00 | 0.00 | 65 | 1016.6 |
| 20260506021711 | 44 | 297 | 0.0 | 9.0 | 0.00 | 0.00 | 0.00 | 67 | 1016.0 |
| 20260506021214 | 44 | 256 | 0.0 | 1.0 | 0.00 | 0.00 | 0.00 | 69 | 1015.7 |
| 20260506020711 | 43 | 252 | 0.0 | 0.0 | 0.00 | 0.00 | 0.00 | 70 | 1015.5 |
| 20260506020214 | 43 | 297 | 0.0 | 0.0 | 0.00 | 0.00 | 0.00 | 73 | 1015.5 |
| 20260506015714 | 43 | 258 | 0.0 | 0.0 | 0.00 | 0.00 | 0.00 | 73 | 1015.7 |
| 20260506015211 | 43 | 233 | 0.0 | 0.0 | 0.00 | 0.00 | 0.00 | 74 | 1015.9 |
| 20260506014711 | 43 | 276 | 0.0 | 1.0 | 0.00 | 0.00 | 0.00 | 76 | 1016.2 |
| 20260506014211 | 43 | 238 | 0.0 | 7.0 | 0.00 | 0.00 | 0.00 | 74 | 1016.3 |
| 20260506013711 | 44 | 248 | 0.0 | 15.0 | 0.00 | 0.00 | 0.00 | 72 | 1016.5 |
| 20260506013211 | 45 | 188 | 0.0 | 15.0 | 0.00 | 0.00 | 0.00 | 69 | 1016.4 |
| 20260506012711 | 46 | 236 | 0.0 | 6.0 | 0.00 | 0.00 | 0.00 | 65 | 1016.1 |
| 20260506012211 | 48 | 235 | 0.0 | 5.0 | 0.00 | 0.00 | 0.00 | 60 | 1016.2 |
| 20260506011714 | 49 | 283 | 0.0 | 2.0 | 0.00 | 0.00 | 0.00 | 54 | 1016.0 |
| 20260506011214 | 49 | 269 | 0.0 | 0.0 | 0.00 | 0.00 | 0.00 | 56 | 1015.8 |
| 20260506010714 | 49 | 250 | 0.0 | 1.0 | 0.00 | 0.00 | 0.00 | 56 | 1015.7 |
| 20260506010214 | 49 | 246 | 0.0 | 0.0 | 0.00 | 0.00 | 0.00 | 56 | 1015.3 |
| 20260506005714 | 50 | 249 | 0.0 | 0.0 | 0.00 | 0.00 | 0.00 | 55 | 1015.3 |
| 20260506005211 | 50 | 240 | 0.0 | 0.0 | 0.00 | 0.00 | 0.00 | 54 | 1015.3 |
| 20260506004714 | 50 | 260 | 0.0 | 0.0 | 0.00 | 0.00 | 0.00 | 52 | 1015.3 |
| 20260506004214 | 51 | 248 | 0.0 | 0.0 | 0.00 | 0.00 | 0.00 | 51 | 1015.2 |
| 20260506003711 | 52 | 281 | 0.0 | 0.0 | 0.00 | 0.00 | 0.00 | 50 | 1015.1 |
| 20260506003211 | 53 | 224 | 0.0 | 0.0 | 0.00 | 0.00 | 0.00 | 49 | 1015.1 |
| 20260506002714 | 55 | 250 | 0.0 | 1.0 | 0.00 | 0.00 | 0.00 | 45 | 1015.1 |
| 20260506002211 | 56 | 245 | 0.0 | 1.0 | 0.00 | 0.00 | 0.00 | 42 | 1015.0 |
| 20260506001711 | 56 | 232 | 0.0 | 8.0 | 0.00 | 0.00 | 0.00 | 41 | 1015.0 |
| 20260506001211 | 56 | 271 | 0.0 | 3.0 | 0.00 | 0.00 | 0.00 | 41 | 1014.8 |
| 20260506000711 | 56 | 266 | 0.0 | 5.0 | 0.00 | 0.00 | 0.00 | 41 | 1014.7 |
| 20260506000214 | 57 | 238 | 0.0 | 3.0 | 0.00 | 0.00 | 0.00 | 40 | 1014.5 |
| 20260505235711 | 57 | 242 | 1.0 | 2.0 | 0.00 | 0.00 | 0.00 | 38 | 1014.5 |
| 20260505235211 | 57 | 224 | 0.0 | 8.0 | 0.00 | 0.00 | 0.00 | 40 | 1014.3 |
| 20260505234714 | 57 | 233 | 0.0 | 1.0 | 0.00 | 0.00 | 0.00 | 41 | 1014.1 |
| 20260505234211 | 57 | 235 | 0.0 | 0.0 | 0.00 | 0.00 | 0.00 | 44 | 1014.0 |
| 20260505233711 | 57 | 224 | 0.0 | 0.0 | 0.00 | 0.00 | 0.00 | 44 | 1013.9 |
| 20260505233214 | 56 | 197 | 0.0 | 0.0 | 0.00 | 0.00 | 0.00 | 44 | 1013.9 |
| 20260505232714 | 56 | 189 | 0.0 | 0.0 | 0.00 | 0.00 | 0.00 | 45 | 1013.8 |
| 20260505232211 | 55 | 238 | 0.0 | 0.0 | 0.00 | 0.00 | 0.00 | 45 | 1014.0 |
| 20260505231714 | 54 | 274 | 0.0 | 5.0 | 0.00 | 0.00 | 0.00 | 47 | 1014.3 |
| 20260505231211 | 54 | 281 | 0.0 | 14.0 | 0.00 | 0.00 | 0.00 | 46 | 1014.4 |
| 20260505230714 | 54 | 280 | 0.0 | 5.0 | 0.00 | 0.00 | 0.00 | 40 | 1014.2 |
| 20260505230211 | 54 | 229 | 0.0 | 0.0 | 0.00 | 0.00 | 0.00 | 45 | 1014.0 |
| 20260505225714 | 54 | 243 | 0.0 | 0.0 | 0.00 | 0.00 | 0.00 | 48 | 1014.1 |
| 20260505225211 | 54 | 352 | 0.0 | 6.0 | 0.00 | 0.00 | 0.00 | 48 | 1013.8 |
| 20260505224714 | 55 | 67 | 0.0 | 0.0 | 0.00 | 0.00 | 0.00 | 47 | 1013.7 |
| 20260505224211 | 57 | 79 | 0.0 | 0.0 | 0.00 | 0.00 | 0.00 | 45 | 1013.7 |
| 20260505223714 | 58 | 276 | 0.0 | 0.0 | 0.00 | 0.00 | 0.00 | 43 | 1013.5 |
| 20260505223214 | 58 | 98 | 0.0 | 0.0 | 0.00 | 0.00 | 0.00 | 44 | 1013.6 |
| 20260505222714 | 57 | 125 | 0.0 | 0.0 | 0.00 | 0.00 | 0.00 | 46 | 1013.6 |
| 20260505222214 | 56 | 139 | 0.0 | 0.0 | 0.00 | 0.00 | 0.00 | 46 | 1013.6 |
| 20260505221714 | 55 | 142 | 0.0 | 0.0 | 0.00 | 0.00 | 0.00 | 47 | 1013.7 |
| 20260505221211 | 55 | 107 | 0.0 | 0.0 | 0.00 | 0.00 | 0.00 | 48 | 1013.7 |
| 20260505220714 | 55 | 73 | 0.0 | 0.0 | 0.00 | 0.00 | 0.00 | 47 | 1013.8 |
| 20260505220211 | 56 | 13 | 0.0 | 0.0 | 0.00 | 0.00 | 0.00 | 44 | 1013.9 |
| 20260505215714 | 56 | 103 | 0.0 | 1.0 | 0.00 | 0.00 | 0.00 | 45 | 1013.9 |
| 20260505215211 | 55 | 55 | 0.0 | 0.0 | 0.00 | 0.00 | 0.00 | 46 | 1013.9 |
| 20260505214711 | 56 | 0 | 0.0 | 1.0 | 0.00 | 0.00 | 0.00 | 44 | 1013.9 |
| 20260505214214 | 58 | 187 | 0.0 | 0.0 | 0.00 | 0.00 | 0.00 | 40 | 1014.0 |
| 20260505213711 | 57 | 187 | 0.0 | 0.0 | 0.00 | 0.00 | 0.00 | 41 | 1014.0 |
| 20260505213211 | 57 | 239 | 0.0 | 0.0 | 0.00 | 0.00 | 0.00 | 41 | 1014.1 |
| 20260505212711 | 57 | 253 | 0.0 | 0.0 | 0.00 | 0.00 | 0.00 | 41 | 1014.1 |
| 20260505212211 | 58 | 262 | 0.0 | 0.0 | 0.00 | 0.00 | 0.00 | 40 | 1014.2 |
| 20260505211714 | 58 | 252 | 0.0 | 0.0 | 0.00 | 0.00 | 0.00 | 42 | 1014.3 |
| 20260505211214 | 58 | 191 | 0.0 | 1.0 | 0.00 | 0.00 | 0.00 | 41 | 1014.4 |
| 20260505210714 | 59 | 132 | 0.0 | 0.0 | 0.00 | 0.00 | 0.00 | 40 | 1014.3 |
| 20260505210211 | 59 | 145 | 0.0 | 4.0 | 0.00 | 0.00 | 0.00 | 40 | 1014.4 |
| 20260505205714 | 59 | 162 | 0.0 | 0.0 | 0.00 | 0.00 | 0.00 | 40 | 1014.3 |
| 20260505205211 | 58 | 184 | 0.0 | 0.0 | 0.00 | 0.00 | 0.00 | 42 | 1014.4 |
| 20260505204711 | 57 | 159 | 0.0 | 0.0 | 0.00 | 0.00 | 0.00 | 44 | 1014.7 |
| 20260505204214 | 56 | 239 | 0.0 | 0.0 | 0.00 | 0.00 | 0.00 | 46 | 1014.7 |
| 20260505203714 | 55 | 319 | 0.0 | 0.0 | 0.00 | 0.00 | 0.00 | 47 | 1014.8 |
| 20260505203214 | 55 | 247 | 0.0 | 0.0 | 0.00 | 0.00 | 0.00 | 48 | 1014.9 |
| 20260505202711 | 55 | 263 | 0.0 | 1.0 | 0.00 | 0.00 | 0.00 | 49 | 1014.9 |
| 20260505202214 | 55 | 354 | 0.0 | 0.0 | 0.00 | 0.00 | 0.00 | 46 | 1015.0 |
| 20260505201714 | 55 | 86 | 0.0 | 0.0 | 0.00 | 0.00 | 0.00 | 45 | 1015.0 |
| 20260505201211 | 56 | 179 | 0.0 | 0.0 | 0.00 | 0.00 | 0.00 | 45 | 1014.9 |
| 20260505200711 | 56 | 64 | 0.0 | 0.0 | 0.00 | 0.00 | 0.00 | 44 | 1014.8 |
| 20260505200214 | 56 | 294 | 0.0 | 0.0 | 0.00 | 0.00 | 0.00 | 44 | 1014.8 |
| 20260505195711 | 56 | 120 | 0.0 | 6.0 | 0.00 | 0.00 | 0.00 | 45 | 1014.9 |
| 20260505195211 | 57 | 252 | 1.0 | 9.0 | 0.00 | 0.00 | 0.00 | 45 | 1014.9 |
| 20260505194711 | 56 | 311 | 1.0 | 7.0 | 0.00 | 0.00 | 0.00 | 47 | 1014.8 |
| 20260505194211 | 55 | 240 | 0.0 | 3.0 | 0.00 | 0.00 | 0.00 | 44 | 1014.9 |
| 20260505193714 | 56 | 248 | 0.0 | 7.0 | 0.00 | 0.00 | 0.00 | 44 | 1014.9 |
| 20260505193211 | 56 | 263 | 1.0 | 4.0 | 0.00 | 0.00 | 0.00 | 45 | 1014.8 |
| 20260505192714 | 55 | 242 | 0.0 | 8.0 | 0.00 | 0.00 | 0.00 | 45 | 1014.9 |
| 20260505192214 | 55 | 209 | 0.0 | 10.0 | 0.00 | 0.00 | 0.00 | 47 | 1014.9 |
| 20260505191714 | 54 | 253 | 4.0 | 9.0 | 0.00 | 0.00 | 0.00 | 48 | 1014.9 |
| 20260505191214 | 53 | 325 | 0.0 | 10.0 | 0.00 | 0.00 | 0.00 | 53 | 1014.9 |
| 20260505190711 | 53 | 249 | 1.0 | 7.0 | 0.00 | 0.00 | 0.00 | 56 | 1015.0 |
| 20260505190214 | 52 | 222 | 0.0 | 10.0 | 0.00 | 0.00 | 0.00 | 57 | 1015.0 |
| 20260505185714 | 52 | 293 | 1.0 | 12.0 | 0.00 | 0.00 | 0.00 | 57 | 1015.2 |
| 20260505185214 | 51 | 264 | 0.0 | 0.0 | 0.00 | 0.00 | 0.00 | 64 | 1015.0 |
| 20260505184711 | 50 | 262 | 0.0 | 1.0 | 0.00 | 0.00 | 0.00 | 63 | 1015.1 |
| 20260505184211 | 50 | 222 | 0.0 | 3.0 | 0.00 | 0.00 | 0.00 | 62 | 1015.2 |
| 20260505183711 | 51 | 259 | 0.0 | 5.0 | 0.00 | 0.00 | 0.00 | 56 | 1015.1 |
| 20260505183214 | 53 | 200 | 0.0 | 1.0 | 0.00 | 0.00 | 0.00 | 52 | 1015.2 |
| 20260505182711 | 54 | 238 | 0.0 | 2.0 | 0.00 | 0.00 | 0.00 | 45 | 1015.1 |
| 20260505182214 | 55 | 168 | 0.0 | 1.0 | 0.00 | 0.00 | 0.00 | 41 | 1014.9 |
| 20260505181714 | 56 | 176 | 0.0 | 0.0 | 0.00 | 0.00 | 0.00 | 41 | 1014.7 |
| 20260505181214 | 55 | 210 | 0.0 | 0.0 | 0.00 | 0.00 | 0.00 | 40 | 1014.8 |
| 20260505180714 | 55 | 156 | 0.0 | 0.0 | 0.00 | 0.00 | 0.00 | 42 | 1014.8 |
| 20260505180214 | 55 | 145 | 0.0 | 1.0 | 0.00 | 0.00 | 0.00 | 40 | 1014.8 |
| 20260505175714 | 56 | 174 | 0.0 | 0.0 | 0.00 | 0.00 | 0.00 | 39 | 1014.7 |
| 20260505175214 | 56 | 221 | 0.0 | 0.0 | 0.00 | 0.00 | 0.00 | 41 | 1014.7 |
| 20260505174714 | 55 | 207 | 0.0 | 0.0 | 0.00 | 0.00 | 0.00 | 40 | 1014.7 |
| 20260505174211 | 54 | 197 | 0.0 | 0.0 | 0.00 | 0.00 | 0.00 | 43 | 1014.8 |
| 20260505173714 | 54 | 132 | 0.0 | 0.0 | 0.00 | 0.00 | 0.00 | 41 | 1015.0 |
| 20260505173211 | 54 | 193 | 0.0 | 0.0 | 0.00 | 0.00 | 0.00 | 41 | 1015.1 |
| 20260505172711 | 55 | 239 | 0.0 | 0.0 | 0.00 | 0.00 | 0.00 | 40 | 1015.1 |
| 20260505172214 | 55 | 223 | 0.0 | 0.0 | 0.00 | 0.00 | 0.00 | 40 | 1015.1 |
| 20260505171711 | 55 | 163 | 0.0 | 0.0 | 0.00 | 0.00 | 0.00 | 40 | 1015.2 |
| 20260505171211 | 55 | 249 | 0.0 | 0.0 | 0.00 | 0.00 | 0.00 | 41 | 1015.3 |
| 20260505170714 | 56 | 212 | 0.0 | 0.0 | 0.00 | 0.00 | 0.00 | 39 | 1015.2 |
| 20260505170214 | 56 | 159 | 0.0 | 0.0 | 0.00 | 0.00 | 0.00 | 40 | 1015.2 |
| 20260505165711 | 55 | 162 | 0.0 | 0.0 | 0.00 | 0.00 | 0.00 | 41 | 1015.3 |
| 20260505165214 | 54 | 210 | 0.0 | 0.0 | 0.00 | 0.00 | 0.00 | 43 | 1015.4 |
| 20260505164714 | 53 | 155 | 0.0 | 0.0 | 0.00 | 0.00 | 0.00 | 44 | 1015.5 |
| 20260505164211 | 52 | 158 | 0.0 | 0.0 | 0.00 | 0.00 | 0.00 | 45 | 1015.6 |
| 20260505163714 | 52 | 253 | 0.0 | 0.0 | 0.00 | 0.00 | 0.00 | 44 | 1015.8 |
| 20260505163214 | 52 | 258 | 0.0 | 0.0 | 0.00 | 0.00 | 0.00 | 44 | 1015.8 |
| 20260505162711 | 53 | 258 | 0.0 | 0.0 | 0.00 | 0.00 | 0.00 | 43 | 1015.7 |
| 20260505162214 | 54 | 263 | 0.0 | 0.0 | 0.00 | 0.00 | 0.00 | 42 | 1015.7 |
| 20260505161714 | 53 | 194 | 0.0 | 0.0 | 0.00 | 0.00 | 0.00 | 44 | 1015.7 |
| 20260505161214 | 53 | 55 | 0.0 | 0.0 | 0.00 | 0.00 | 0.00 | 44 | 1015.9 |
| 20260505160714 | 52 | 205 | 0.0 | 0.0 | 0.00 | 0.00 | 0.00 | 45 | 1015.9 |
| 20260505160214 | 52 | 169 | 0.0 | 0.0 | 0.00 | 0.00 | 0.00 | 46 | 1016.1 |
| 20260505153214 | 51 | 252 | 0.0 | 0.0 | 0.00 | 0.00 | 0.00 | 42 | 1016.3 |
| 20260505152711 | 52 | 287 | 0.0 | 1.0 | 0.00 | 0.00 | 0.00 | 42 | 1016.4 |
| 20260505152214 | 52 | 139 | 0.0 | 0.0 | 0.00 | 0.00 | 0.00 | 43 | 1016.5 |
| 20260505151714 | 52 | 142 | 0.0 | 0.0 | 0.00 | 0.00 | 0.00 | 43 | 1016.6 |
| 20260505151211 | 51 | 142 | 0.0 | 0.0 | 0.00 | 0.00 | 0.00 | 43 | 1016.5 |
| 20260505150711 | 50 | 242 | 0.0 | 0.0 | 0.00 | 0.00 | 0.00 | 46 | 1016.6 |
| 20260505150214 | 50 | 245 | 0.0 | 0.0 | 0.00 | 0.00 | 0.00 | 45 | 1016.6 |
| 20260505140214 | 49 | 258 | 0.0 | 0.0 | 0.00 | 0.00 | 0.00 | 52 | 1017.1 |